N0FDH Weather Reports


Display with metric or nautical units.
time (UTC)temp
F
wind
direction
speed
MPH
gust
MPH
rain 1hr
in
rain 24hr
in
rain mn
in
humidity
%
barometer
mb
20260502235155 60 170 1.0 3.0 0.00 0.00 0.00 38 1010.5
20260502234651 60 181 1.0 3.0 0.00 0.00 0.00 38 1010.5
20260502234149 61 182 3.0 3.0 0.00 0.00 0.00 38 1010.7
20260502233645 61 231 3.0 4.0 0.00 0.00 0.00 39 1010.5
20260502233141 61 174 1.0 1.0 0.00 0.00 0.00 39 1010.7
20260502232637 61 185 3.0 3.0 0.00 0.00 0.00 37 1010.7
20260502232135 61 197 2.0 2.0 0.00 0.00 0.00 38 1010.9
20260502231631 61 209 1.0 3.0 0.00 0.00 0.00 39 1010.9
20260502231130 61 175 1.0 4.0 0.00 0.00 0.00 38 1011.0
20260502230627 61 238 4.0 7.0 0.00 0.00 0.00 37 1011.0
20260502230126 61 190 2.0 6.0 0.00 0.00 0.00 37 1011.0
20260502225620 61 191 2.0 4.0 0.00 0.00 0.00 36 1011.0
20260502225118 62 268 4.0 8.0 0.00 0.00 0.00 37 1011.1
20260502224614 62 185 3.0 6.0 0.00 0.00 0.00 36 1011.2
20260502224111 62 162 1.0 4.0 0.00 0.00 0.00 35 1011.3
20260502223609 62 231 4.0 4.0 0.00 0.00 0.00 38 1011.5
20260502223108 61 239 4.0 9.0 0.00 0.00 0.00 36 1011.5
20260502222604 61 223 6.0 6.0 0.00 0.00 0.00 36 1011.3
20260502222100 61 190 4.0 6.0 0.00 0.00 0.00 38 1011.5
20260502221556 60 228 4.0 7.0 0.00 0.00 0.00 37 1011.6
20260502221054 60 250 8.0 9.0 0.00 0.00 0.00 36 1011.5
20260502220549 60 238 4.0 7.0 0.00 0.00 0.00 37 1011.6
20260502220046 60 224 3.0 6.0 0.00 0.00 0.00 40 1011.7
20260502215543 60 264 5.0 6.0 0.00 0.00 0.00 38 1011.7
20260502215040 62 245 7.0 10.0 0.00 0.00 0.00 35 1011.8
20260502214537 62 188 5.0 9.0 0.00 0.00 0.00 36 1012.0
20260502214035 62 247 8.0 10.0 0.00 0.00 0.00 37 1011.9
20260502213531 61 304 2.0 6.0 0.00 0.00 0.00 35 1012.0
20260502213029 61 239 5.0 8.0 0.00 0.00 0.00 36 1012.0
20260502212528 61 250 10.0 13.0 0.00 0.00 0.00 37 1012.0
20260502212025 62 281 10.0 13.0 0.00 0.00 0.00 36 1011.8
20260502211521 61 243 4.0 6.0 0.00 0.00 0.00 35 1012.1
20260502211018 61 213 5.0 7.0 0.00 0.00 0.00 36 1012.0
20260502210515 62 238 4.0 7.0 0.00 0.00 0.00 34 1012.2
20260502210012 62 237 9.0 11.0 0.00 0.00 0.00 34 1012.4
20260502205508 61 309 3.0 7.0 0.00 0.00 0.00 36 1012.5
20260502205006 61 165 4.0 9.0 0.00 0.00 0.00 35 1012.5
20260502204502 60 201 3.0 4.0 0.00 0.00 0.00 35 1012.7
20260502204000 60 285 2.0 8.0 0.00 0.00 0.00 35 1012.8
20260502203457 59 246 5.0 9.0 0.00 0.00 0.00 37 1012.9
20260502202953 60 237 5.0 7.0 0.00 0.00 0.00 37 1012.9
20260502202450 60 214 3.0 8.0 0.00 0.00 0.00 35 1013.1
20260502201949 60 178 2.0 4.0 0.00 0.00 0.00 35 1013.0
20260502201444 60 212 5.0 8.0 0.00 0.00 0.00 35 1013.2
20260502200941 60 254 6.0 9.0 0.00 0.00 0.00 36 1013.3
20260502200437 60 248 6.0 7.0 0.00 0.00 0.00 35 1013.3
20260502195935 61 177 4.0 8.0 0.00 0.00 0.00 34 1013.2
20260502195431 60 252 2.0 3.0 0.00 0.00 0.00 36 1013.3
20260502194928 59 322 1.0 6.0 0.00 0.00 0.00 38 1013.5
20260502194425 60 271 6.0 9.0 0.00 0.00 0.00 37 1013.5
20260502193921 60 254 4.0 6.0 0.00 0.00 0.00 35 1013.6
20260502193418 59 212 3.0 7.0 0.00 0.00 0.00 35 1013.9
20260502192913 59 291 6.0 8.0 0.00 0.00 0.00 36 1013.9
20260502192411 59 318 5.0 10.0 0.00 0.00 0.00 34 1013.8
20260502191908 60 243 4.0 6.0 0.00 0.00 0.00 34 1014.1
20260502191406 59 29 2.0 7.0 0.00 0.00 0.00 34 1014.1
20260502190903 58 337 3.0 3.0 0.00 0.00 0.00 34 1014.3
20260502190400 58 293 4.0 7.0 0.00 0.00 0.00 36 1014.3
20260502185856 59 248 6.0 8.0 0.00 0.00 0.00 34 1014.4
20260502185351 59 224 4.0 7.0 0.00 0.00 0.00 35 1014.5
20260502184849 58 68 4.0 7.0 0.00 0.00 0.00 39 1014.5
20260502184344 58 265 2.0 7.0 0.00 0.00 0.00 33 1014.5
20260502183841 58 249 3.0 8.0 0.00 0.00 0.00 35 1014.6
20260502183337 57 251 6.0 7.0 0.00 0.00 0.00 34 1014.8
20260502182832 58 230 7.0 10.0 0.00 0.00 0.00 34 1014.9
20260502182328 58 180 3.0 4.0 0.00 0.00 0.00 32 1014.8
20260502181824 57 245 5.0 7.0 0.00 0.00 0.00 33 1015.0
20260502181324 57 250 2.0 7.0 0.00 0.00 0.00 34 1014.9
20260502180821 57 179 4.0 7.0 0.00 0.00 0.00 34 1015.1
20260502180318 57 303 3.0 6.0 0.00 0.00 0.00 33 1014.8
20260502170237 56 312 5.0 9.0 0.00 0.00 0.00 34 1016.0
20260502164225 56 239 6.0 6.0 0.00 0.00 0.00 33 1016.3
20260502163720 55 251 1.0 6.0 0.00 0.00 0.00 34 1016.3
20260502163217 55 169 7.0 9.0 0.00 0.00 0.00 37 1016.4
20260502162714 55 200 4.0 9.0 0.00 0.00 0.00 34 1016.5
20260502162210 55 338 3.0 6.0 0.00 0.00 0.00 35 1016.5
20260502161708 54 180 4.0 6.0 0.00 0.00 0.00 35 1016.7
20260502161204 54 341 3.0 6.0 0.00 0.00 0.00 35 1016.7
20260502160702 54 326 10.0 13.0 0.00 0.00 0.00 36 1016.6
20260502160201 54 298 4.0 8.0 0.00 0.00 0.00 37 1016.8
20260502152121 53 252 5.0 8.0 0.00 0.00 0.00 37 1017.0
20260502151618 53 257 7.0 8.0 0.00 0.00 0.00 36 1017.1
20260502151115 53 223 5.0 6.0 0.00 0.00 0.00 37 1017.1
20260502150613 53 310 2.0 3.0 0.00 0.00 0.00 35 1017.0
20260502150108 52 253 4.0 6.0 0.00 0.00 0.00 39 1017.0
20260502130457 40 227 1.0 2.0 0.00 0.00 0.00 66 1017.5
20260502123440 36 126 0.0 0.0 0.00 0.00 0.00 73 1017.6
20260502122937 35 126 0.0 0.0 0.00 0.00 0.00 73 1017.5
20260502122433 34 126 0.0 0.0 0.00 0.00 0.00 74 1017.5
20260502121931 33 126 0.0 0.0 0.00 0.00 0.00 75 1017.6
20260502121428 33 126 0.0 0.0 0.00 0.00 0.00 75 1017.5
20260502120926 32 126 0.0 0.0 0.00 0.00 0.00 76 1017.5
20260502120422 32 126 0.0 0.0 0.00 0.00 0.00 77 1017.6
20260502115919 31 126 0.0 0.0 0.00 0.00 0.00 77 1017.6
20260502115416 31 126 0.0 0.0 0.00 0.00 0.00 78 1017.6
20260502114912 30 126 0.0 0.0 0.00 0.00 0.00 79 1017.5
20260502114409 30 126 0.0 0.0 0.00 0.00 0.00 79 1017.6
20260502113906 30 126 0.0 0.0 0.00 0.00 0.00 79 1017.7
20260502113404 30 126 0.0 0.0 0.00 0.00 0.00 79 1017.5
20260502112902 30 126 0.0 0.0 0.00 0.00 0.00 79 1017.4
20260502112359 30 126 1.0 1.0 0.00 0.00 0.00 79 1017.4
20260502111856 30 126 0.0 1.0 0.00 0.00 0.00 78 1017.6
20260502111354 30 126 0.0 1.0 0.00 0.00 0.00 77 1017.4
20260502110851 30 126 0.0 1.0 0.00 0.00 0.00 77 1017.3
20260502110349 30 126 0.0 1.0 0.00 0.00 0.00 77 1017.5
20260502105846 30 126 0.0 1.0 0.00 0.00 0.00 76 1017.4
20260502105343 30 126 0.0 1.0 0.00 0.00 0.00 76 1017.4
20260502104841 30 126 1.0 1.0 0.00 0.00 0.00 74 1017.5
20260502104338 30 126 0.0 0.0 0.00 0.00 0.00 74 1017.5
20260502103835 30 126 1.0 1.0 0.00 0.00 0.00 75 1017.5
20260502103333 30 126 1.0 1.0 0.00 0.00 0.00 74 1017.6
20260502102830 30 126 0.0 1.0 0.00 0.00 0.00 75 1017.4
20260502102326 30 126 0.0 1.0 0.00 0.00 0.00 74 1017.4
20260502101824 31 126 0.0 0.0 0.00 0.00 0.00 75 1017.4
20260502101322 31 126 1.0 1.0 0.00 0.00 0.00 75 1017.3
20260502100820 31 126 1.0 1.0 0.00 0.00 0.00 76 1017.5
20260502100319 31 126 1.0 1.0 0.00 0.00 0.00 74 1017.5
20260502091253 34 126 1.0 1.0 0.00 0.00 0.00 66 1017.5
20260502090750 34 126 1.0 2.0 0.00 0.00 0.00 64 1017.5
20260502090247 34 126 2.0 2.0 0.00 0.00 0.00 64 1017.6
20260502071147 38 125 1.0 2.0 0.00 0.00 0.00 57 1018.0
20260502070645 38 125 2.0 2.0 0.00 0.00 0.00 56 1018.1
20260502070143 38 125 1.0 2.0 0.00 0.00 0.00 56 1017.9
20260502065641 38 125 1.0 2.0 0.00 0.00 0.00 58 1018.0
20260502065138 38 125 2.0 2.0 0.00 0.00 0.00 57 1018.0
20260502064637 38 125 1.0 2.0 0.00 0.00 0.00 57 1018.0
20260502064134 38 125 1.0 1.0 0.00 0.00 0.00 58 1018.2
20260502063632 38 125 1.0 2.0 0.00 0.00 0.00 56 1018.1
20260502063129 39 125 1.0 2.0 0.00 0.00 0.00 57 1018.1
20260502062626 38 125 2.0 2.0 0.00 0.00 0.00 58 1018.1
20260502062124 39 125 1.0 2.0 0.00 0.00 0.00 56 1018.1
20260502061622 38 125 1.0 1.0 0.00 0.00 0.00 57 1018.0
20260502061119 38 125 1.0 1.0 0.00 0.00 0.00 57 1018.2
20260502060619 38 125 1.0 2.0 0.00 0.00 0.00 57 1018.1
20260502060116 39 125 1.0 1.0 0.00 0.00 0.00 57 1018.3
20260502055614 39 125 1.0 2.0 0.00 0.00 0.00 56 1018.2
20260502055112 39 125 2.0 2.0 0.00 0.00 0.00 56 1018.0
20260502054610 39 125 1.0 2.0 0.00 0.00 0.00 56 1018.3
20260502054107 39 125 1.0 1.0 0.00 0.00 0.00 57 1018.2
20260502053604 38 125 1.0 2.0 0.00 0.00 0.00 59 1018.2
20260502053102 37 125 1.0 2.0 0.00 0.00 0.00 66 1018.3
20260502052600 37 125 1.0 1.0 0.00 0.00 0.00 68 1018.3
20260502052058 36 125 1.0 2.0 0.00 0.00 0.00 70 1018.1
20260502051556 36 125 0.0 0.0 0.00 0.00 0.00 69 1018.2
20260502051053 36 125 0.0 1.0 0.00 0.00 0.00 68 1018.1
20260502050549 36 125 1.0 1.0 0.00 0.00 0.00 68 1018.2
20260502050046 36 125 1.0 1.0 0.00 0.00 0.00 69 1018.2
20260502045543 36 125 1.0 1.0 0.00 0.00 0.00 68 1018.2
20260502045040 36 125 1.0 2.0 0.00 0.00 0.00 69 1018.2
20260502044536 36 125 0.0 0.0 0.00 0.00 0.00 70 1018.1
20260502044033 36 125 0.0 0.0 0.00 0.00 0.00 71 1018.1
20260502043531 36 125 0.0 0.0 0.00 0.00 0.00 71 1018.0
20260502043027 36 125 0.0 0.0 0.00 0.00 0.00 68 1018.2
20260502042522 36 125 1.0 2.0 0.00 0.00 0.00 70 1018.1
20260502042020 36 125 1.0 2.0 0.00 0.00 0.00 71 1018.1
20260502041517 36 125 1.0 2.0 0.00 0.00 0.00 70 1018.2
20260502041014 37 80 1.0 2.0 0.00 0.00 0.00 67 1018.1
20260502040511 37 79 1.0 2.0 0.00 0.00 0.00 65 1018.1
20260502040008 37 79 1.0 1.0 0.00 0.00 0.00 63 1018.2
20260502035503 38 79 1.0 1.0 0.00 0.00 0.00 62 1018.2
20260502035001 38 79 0.0 0.0 0.00 0.00 0.00 61 1018.3
20260502034459 38 79 0.0 0.0 0.00 0.00 0.00 62 1018.3
20260502033958 38 79 0.0 0.0 0.00 0.00 0.00 61 1018.3
20260502033455 39 79 0.0 0.0 0.00 0.00 0.00 59 1018.3
20260502032951 39 79 0.0 0.0 0.00 0.00 0.00 56 1018.2
20260502032448 39 79 0.0 0.0 0.00 0.00 0.00 56 1018.3
20260502031945 39 79 0.0 0.0 0.00 0.00 0.00 55 1018.1
20260502031443 40 79 0.0 0.0 0.00 0.00 0.00 54 1018.2
20260502030941 40 79 0.0 0.0 0.00 0.00 0.00 54 1018.3
20260502030439 40 79 0.0 1.0 0.00 0.00 0.00 57 1018.3
20260502025937 41 79 0.0 0.0 0.00 0.00 0.00 53 1018.2
20260502025433 41 79 0.0 1.0 0.00 0.00 0.00 53 1018.2
20260502024931 41 79 1.0 1.0 0.00 0.00 0.00 52 1018.2
20260502024430 42 79 0.0 1.0 0.00 0.00 0.00 50 1018.3
20260502023927 42 79 0.0 1.0 0.00 0.00 0.00 48 1018.3
20260502023424 43 79 0.0 1.0 0.00 0.00 0.00 47 1018.2
20260502022922 43 79 0.0 1.0 0.00 0.00 0.00 46 1018.2
20260502022418 43 79 0.0 1.0 0.00 0.00 0.00 45 1018.2
20260502021915 44 79 0.0 0.0 0.00 0.00 0.00 45 1018.0
20260502021412 44 79 0.0 0.0 0.00 0.00 0.00 46 1018.0
20260502020909 45 79 0.0 0.0 0.00 0.00 0.00 50 1017.9
20260502020408 45 79 0.0 1.0 0.00 0.00 0.00 47 1018.1
20260502015904 45 79 0.0 1.0 0.00 0.00 0.00 46 1017.9
20260502015401 46 79 0.0 1.0 0.00 0.00 0.00 45 1017.9
20260502014858 46 79 0.0 0.0 0.00 0.00 0.00 48 1017.8
20260502014355 46 79 0.0 0.0 0.00 0.00 0.00 43 1017.9
20260502013851 46 79 0.0 0.0 0.00 0.00 0.00 44 1017.8
20260502013347 46 79 0.0 0.0 0.00 0.00 0.00 43 1017.7
20260502012844 47 79 1.0 2.0 0.00 0.00 0.00 40 1017.6
20260502012342 47 30 0.0 1.0 0.00 0.00 0.00 42 1017.6
20260502011839 47 30 0.0 0.0 0.00 0.00 0.00 40 1017.6
20260502011334 48 30 0.0 0.0 0.00 0.00 0.00 38 1017.6
20260502010832 48 30 0.0 1.0 0.00 0.00 0.00 37 1017.5
20260502010328 48 30 0.0 0.0 0.00 0.00 0.00 37 1017.6
20260502005825 48 30 0.0 0.0 0.00 0.00 0.00 37 1017.6
20260502005323 49 30 0.0 0.0 0.00 0.00 0.00 36 1017.6
20260502004821 49 30 0.0 0.0 0.00 0.00 0.00 37 1017.6
20260502004316 49 30 0.0 0.0 0.00 0.00 0.00 35 1017.4
20260502003814 49 30 0.0 0.0 0.00 0.00 0.00 35 1017.5
20260502003311 50 30 0.0 0.0 0.00 0.00 0.00 35 1017.5
20260502002807 50 30 0.0 0.0 0.00 0.00 0.00 35 1017.4
20260502002306 50 30 0.0 0.0 0.00 0.00 0.00 35 1017.5
20260502001802 50 30 0.0 0.0 0.00 0.00 0.00 35 1017.4
20260502001300 50 30 0.0 0.0 0.00 0.00 0.00 35 1017.4
20260502000757 50 33 1.0 2.0 0.00 0.00 0.00 34 1017.3
20260502000255 50 10 0.0 1.0 0.00 0.00 0.00 36 1017.5
20260501235755 50 10 0.0 0.0 0.00 0.00 0.00 34 1017.5
20260501235252 50 324 0.0 0.0 0.00 0.00 0.00 35 1017.5